Miscellaneous Local Product
Issued by NWS North Platte, NE

Home | Current Version | Previous Version | Text Only | Print | Product List | Glossary On
Versions: 1 2 3 4 5 6 7 8 9 10 11 12 13 14 15 16 17 18 19 20 21 22 23 24 25 26 27 28 29 30 31 32 33 34 35 36 37 38 39 40 41 42 43 44 45 46 47 48 49 50
000
AXUS43 KLBF 272110
MISLBF


WESTERN AND NORTH CENTRAL NEBRASKA HOURLY WEATHER ROUNDUP
NATIONAL WEATHER SERVICE NORTH PLATTE NE
300 PM CST THU NOV 27 2014

***STATIONS NOT REPORTING VARIABLES SUCH AS SKY/WEATHER OR
PRESSURE ARE PROVIDED BY THE NEBRASKA DEPARTMENT OF
ROADS...RAWS...AND APRS NETWORKS...AND ARE NOT UNDER
NATIONAL WEATHER SERVICE QUALITY CONTROL***

...OBSERVATIONS IN AND NEAR THE EASTERN PANHANDLE OF NEBRASKA...

CITY           SKY/WX    TMP DP  RH WIND       PRES   REMARKS
PINE RIDGE     MOSUNNY   53  32  44 W9        29.94F
CHADRON        MOSUNNY  N/A N/A N/A W6        29.94F
ALLIANCE       MOSUNNY   59  30  33 W16       29.98F
SIDNEY         PTSUNNY   47  33  58 SW10      30.05F
WHITECLAY        N/A     52  32  45 CALM        N/A
CRESCENT LAKE    N/A     56  31  39 SW8         N/A
LISCO            N/A     50  31  48 CALM        N/A
BIG SPRINGS      N/A     55  41  60 W9          N/A
$$

...OBSERVATIONS IN NORTH CENTRAL NEBRASKA...

CITY           SKY/WX    TMP DP  RH WIND       PRES   REMARKS
VALENTINE      MOSUNNY   42  23  46 SE13      30.01F
THEDFORD       MOSUNNY   46  25  44 S14       30.03F
AINSWORTH      MOSUNNY   41  22  47 S16       30.03F
O`NEILL        PTSUNNY   34  17  49 S20G26    30.14F WCI  22
ORD            MOSUNNY   39  19  44 S21       30.13F WCI  29
BROKEN BOW     MOSUNNY   43  22  43 S18       30.09F
BROWNLEE         N/A     50  25  37 S15         N/A
SPRINGVIEW       N/A     40  23  51 S8G15       N/A  WCI  34
BREWSTER         N/A     43  21  42 S20         N/A
SARGENT          N/A     39  22  51 S6          N/A  WCI  35
COMSTOCK         N/A     41  21  44 S13         N/A
CHAMBERS         N/A     34  15  46 S14         N/A  WCI  25
$$

...OBSERVATIONS IN SOUTHWEST NEBRASKA AND FAR NORTHEAST COLORADO...

CITY           SKY/WX    TMP DP  RH WIND       PRES   REMARKS
WRAY           FAIR      66  23  19 W9        30.06F
HOLYOKE        FAIR      55  41  58 W6        30.06F
IMPERIAL       PTSUNNY   62  30  29 SW7       30.05F
OGALLALA       SUNNY     58  40  51 SW8       30.04F
NORTH PLATTE   SUNNY     49  23  36 S14       30.06F
MCCOOK         SUNNY     53  26  35 SE10      30.08F
LEXINGTON      SUNNY     47  22  36 S17       30.11F
PAXTON           N/A     52  35  52 S12         N/A
BRADY            N/A     49  25  39 CALM        N/A
GOTHENBURG       N/A     48  22  36 S9          N/A
CALLAWAY         N/A     45  26  47 S16         N/A
$$

...NORTH PLATTE AREA...

CITY           SKY/WX    TMP DP  RH WIND       PRES   REMARKS
AIRPORT        SUNNY     49  23  36 S14       30.06F
DOWNTOWN         N/A     48  25  40 SW7         N/A
$$

...SOME WEATHER OBSERVATIONS FROM AROUND THE REGION...

CITY           SKY/WX    TMP DP  RH WIND       PRES   REMARKS
DENVER         CLOUDY    63  17  17 W22G28    30.12F
LARAMIE        CLOUDY    48  21  34 W29G37    30.17F
CHEYENNE       PTSUNNY   56  22  26 W21G31    30.10F
SCOTTSBLUFF    MOSUNNY   39  31  72 SE3       30.00F
RAPID CITY     PTSUNNY   34  27  75 S8        29.91F WCI  27
PIERRE         CLOUDY    24  14  65 SE20      30.06F WCI  10
WINNER         CLOUDY    33  17  51 SE16G22   30.07F WCI  23
SIOUX FALLS    CLOUDY    11   0  61 SE13      30.29F WCI  -4
OMAHA          PTSUNNY   22   6  50 SE12      30.39F WCI  10
GRAND ISLAND   SUNNY     34  17  50 S14       30.21F WCI  25
KANSAS CITY    MOSUNNY   35  22  58 SE6       30.41F WCI  30
WICHITA        MOSUNNY   46  15  28 S21       30.33F
HAYS           MOSUNNY   50  21  32 S24       30.18F
LIBERAL        SUNNY     63  34  34 S17G24    30.19F
GOODLAND       MOSUNNY   64  23  21 S17       30.08F
$$



USA.gov is the U.S. government's official web portal to all federal, state and local government web resources and services.